ProjectID,Date,Electric Generation,Electric Utility Import,Facility Electric Load
,YYYY-MM-DD,kW,kW,kW
164,2013-12-27,23.15625,,23.15625
164,2013-12-28,80.61916666666666,,80.61916666666666
164,2013-12-29,5.644166666666667,,5.644166666666667
164,2013-12-30,31.286666666666665,,31.286666666666665
164,2013-12-31,49.731249999999996,,49.731249999999996
164,2014-01-01,55.580000000000005,,55.580000000000005
164,2014-01-02,0.36166666666666664,,0.36166666666666664
164,2014-01-03,0.39208333333333334,,0.39208333333333334
164,2014-01-04,10.569583333333332,,10.569583333333332
164,2014-01-05,11.724583333333333,,11.724583333333333
164,2014-01-06,63.75458333333333,,63.75458333333333
164,2014-01-07,104.83791666666667,,104.83791666666667
164,2014-01-08,116.55666666666667,,116.55666666666667
164,2014-01-09,128.43833333333333,,128.43833333333333
164,2014-01-10,10.071250000000001,,10.071250000000001
164,2014-01-11,8.220416666666667,,8.220416666666667
164,2014-01-12,11.125,,11.125
164,2014-01-13,30.45125,,30.45125
164,2014-01-14,18.55875,,18.55875
164,2014-01-15,48.49208333333333,,48.49208333333333
164,2014-01-16,126.64412499999999,,126.64412499999999
164,2014-01-17,71.7975,,71.7975
164,2014-01-18,0.41791666666666666,,0.41791666666666666
164,2014-01-19,4.495833333333334,,4.495833333333334
164,2014-01-20,1.90125,,1.90125
164,2014-01-21,5.76125,,5.76125
164,2014-01-22,5.482500000000001,,5.482500000000001
164,2014-01-23,4.5129166666666665,,4.5129166666666665
164,2014-01-24,17.81125,,17.81125
164,2014-01-25,29.410791666666668,,29.410791666666668
164,2014-01-26,44.28791666666667,,44.28791666666667
164,2014-01-27,71.88329166666666,,71.88329166666666
164,2014-01-28,26.605416666666667,,26.605416666666667
164,2014-01-29,112.03208333333333,,112.03208333333333
164,2014-01-30,167.32916666666668,,167.32916666666668
164,2014-01-31,31.909166666666668,,31.909166666666668
164,2014-02-01,34.68625,,34.68625
164,2014-02-02,18.007916666666667,,18.007916666666667
164,2014-02-03,43.43754166666667,,43.43754166666667
164,2014-02-04,108.02375,,108.02375
164,2014-02-05,0.24333333333333332,,0.24333333333333332
164,2014-02-06,7.0925,,7.0925
164,2014-02-07,25.846249999999998,,25.846249999999998
164,2014-02-08,27.99083333333333,,27.99083333333333
164,2014-02-09,11.119166666666667,,11.119166666666667
164,2014-02-10,51.775416666666665,,51.775416666666665
164,2014-02-11,57.403333333333336,,57.403333333333336
164,2014-02-12,122.61708333333333,,122.61708333333333
164,2014-02-13,25.097916666666666,,25.097916666666666
164,2014-02-14,24.1725,,24.1725
164,2014-02-15,46.147083333333335,,46.147083333333335
164,2014-02-16,57.68541666666667,,57.68541666666667
164,2014-02-17,145.91875000000002,,145.91875000000002
164,2014-02-18,72.24958333333333,,72.24958333333333
164,2014-02-19,49.66458333333333,,49.66458333333333
164,2014-02-20,91.65249999999999,,91.65249999999999
164,2014-02-21,35.28666666666667,,35.28666666666667
164,2014-02-22,112.66125,,112.66125
164,2014-02-23,126.67583333333333,,126.67583333333333
164,2014-02-24,105.93624999999999,,105.93624999999999
164,2014-02-25,94.83833333333332,,94.83833333333332
164,2014-02-26,157.36833333333334,,157.36833333333334
164,2014-02-27,106.62416666666667,,106.62416666666667
164,2014-02-28,191.22083333333333,,191.22083333333333
164,2014-03-01,87.39875,,87.39875
164,2014-03-02,18.92833333333333,,18.92833333333333
164,2014-03-03,19.8525,,19.8525
164,2014-03-04,25.316666666666666,,25.316666666666666
164,2014-03-05,32.60791666666667,,32.60791666666667
164,2014-03-06,171.0,,171.0
164,2014-03-07,215.01666666666665,,215.01666666666665
164,2014-03-08,54.23791666666667,,54.23791666666667
164,2014-03-09,109.69920833333333,,109.69920833333333
164,2014-03-10,100.49833333333333,,100.49833333333333
164,2014-03-11,189.52791666666667,,189.52791666666667
164,2014-03-12,0.105,,0.105
164,2014-03-13,11.1025,,11.1025
164,2014-03-14,121.1725,,121.1725
164,2014-03-15,46.49916666666667,,46.49916666666667
164,2014-03-16,175.42291666666665,,175.42291666666665
164,2014-03-17,221.8425,,221.8425
164,2014-03-18,209.30416666666667,,209.30416666666667
164,2014-03-19,129.13916666666668,,129.13916666666668
164,2014-03-20,35.62291666666667,,35.62291666666667
164,2014-03-21,135.83,,135.83
164,2014-03-22,69.05708333333332,,69.05708333333332
164,2014-03-23,126.5475,,126.5475
164,2014-03-24,104.12875000000001,,104.12875000000001
164,2014-03-25,207.74541666666667,,207.74541666666667
164,2014-03-26,114.84416666666668,,114.84416666666668
164,2014-03-27,145.60125,,145.60125
164,2014-03-28,63.465,,63.465
164,2014-03-29,40.09083333333333,,40.09083333333333
164,2014-03-30,1.1491666666666667,,1.1491666666666667
164,2014-03-31,181.17458333333332,,181.17458333333332
164,2014-04-01,151.85875000000001,,151.85875000000001
164,2014-04-02,216.59375,,216.59375
164,2014-04-03,175.62958333333333,,175.62958333333333
164,2014-04-04,38.57,,38.57
164,2014-04-05,83.84791666666666,,83.84791666666666
164,2014-04-06,234.62583333333336,,234.62583333333336
164,2014-04-07,42.974583333333335,,42.974583333333335
164,2014-04-08,51.82416666666666,,51.82416666666666
164,2014-04-09,177.5325,,177.5325
164,2014-04-10,221.82625,,221.82625
164,2014-04-11,122.18083333333334,,122.18083333333334
164,2014-04-12,219.34458333333336,,219.34458333333336
164,2014-04-13,165.95041666666665,,165.95041666666665
164,2014-04-14,91.77079166666665,,91.77079166666665
164,2014-04-15,25.996666666666666,,25.996666666666666
164,2014-04-16,183.65458333333333,,183.65458333333333
164,2014-04-17,233.28458333333333,,233.28458333333333
164,2014-04-18,176.85041666666666,,176.85041666666666
164,2014-04-19,183.9775,,183.9775
164,2014-04-20,234.68625,,234.68625
164,2014-04-21,212.12833333333333,,212.12833333333333
164,2014-04-22,66.62125,,66.62125
164,2014-04-23,48.99166666666667,,48.99166666666667
164,2014-04-24,235.56625,,235.56625
164,2014-04-25,164.29791666666668,,164.29791666666668
164,2014-04-26,83.8425,,83.8425
164,2014-04-27,118.02958333333333,,118.02958333333333
164,2014-04-28,221.41166666666666,,221.41166666666666
164,2014-04-29,45.790416666666665,,45.790416666666665
164,2014-04-30,25.984166666666667,,25.984166666666667
164,2014-05-01,90.67583333333333,,90.67583333333333
164,2014-05-02,121.60541666666667,,121.60541666666667
164,2014-05-03,87.29166666666667,,87.29166666666667
164,2014-05-04,195.1625,,195.1625
164,2014-05-05,222.69541666666666,,222.69541666666666
164,2014-05-06,225.5925,,225.5925
164,2014-05-07,201.36458333333334,,201.36458333333334
164,2014-05-08,209.44000000000003,,209.44000000000003
164,2014-05-09,177.14833333333334,,177.14833333333334
164,2014-05-10,161.84375,,161.84375
164,2014-05-11,241.91916666666668,,241.91916666666668
164,2014-05-12,191.26291666666668,,191.26291666666668
164,2014-05-13,194.61166666666668,,194.61166666666668
164,2014-05-14,192.43620833333333,,192.43620833333333
164,2014-05-15,138.39458333333332,,138.39458333333332
164,2014-05-16,56.17583333333334,,56.17583333333334
164,2014-05-17,151.13958333333332,,151.13958333333332
164,2014-05-18,195.21083333333334,,195.21083333333334
164,2014-05-19,178.52458333333334,,178.52458333333334
164,2014-05-20,196.0845833333333,,196.0845833333333
164,2014-05-21,117.18083333333334,,117.18083333333334
164,2014-05-22,183.12125,,183.12125
164,2014-05-23,55.0625,,55.0625
164,2014-05-24,177.50250000000003,,177.50250000000003
164,2014-05-25,220.67458333333332,,220.67458333333332
164,2014-05-26,233.87,,233.87
164,2014-05-27,167.09791666666666,,167.09791666666666
164,2014-05-28,85.47666666666667,,85.47666666666667
164,2014-05-29,89.34500000000001,,89.34500000000001
164,2014-05-30,202.05499999999998,,202.05499999999998
164,2014-05-31,235.63541666666666,,235.63541666666666
164,2014-06-01,240.08708333333334,,240.08708333333334
164,2014-06-02,222.91791666666666,,222.91791666666666
164,2014-06-03,153.095,,153.095
164,2014-06-04,158.11583333333334,,158.11583333333334
164,2014-06-05,127.95208333333333,,127.95208333333333
164,2014-06-06,200.11458333333334,,200.11458333333334
164,2014-06-07,240.74333333333334,,240.74333333333334
164,2014-06-08,168.65083333333334,,168.65083333333334
164,2014-06-09,58.9675,,58.9675
164,2014-06-10,157.96375,,157.96375
164,2014-06-11,100.11833333333334,,100.11833333333334
164,2014-06-12,47.89041666666666,,47.89041666666666
164,2014-06-13,135.17208333333335,,135.17208333333335
164,2014-06-14,94.43624999999999,,94.43624999999999
164,2014-06-15,209.4466666666667,,209.4466666666667
164,2014-06-16,192.255,,192.255
164,2014-06-17,192.68499999999997,,192.68499999999997
164,2014-06-18,168.44166666666666,,168.44166666666666
164,2014-06-19,230.5270833333333,,230.5270833333333
164,2014-06-20,228.2279166666667,,228.2279166666667
164,2014-06-21,231.25,,231.25
164,2014-06-22,237.97666666666666,,237.97666666666666
164,2014-06-23,194.56500000000003,,194.56500000000003
164,2014-06-24,126.30083333333333,,126.30083333333333
164,2014-06-25,57.39333333333334,,57.39333333333334
164,2014-06-26,178.89333333333332,,178.89333333333332
164,2014-06-27,234.95291666666665,,234.95291666666665
164,2014-06-28,221.51954166666667,,221.51954166666667
164,2014-06-29,205.49375,,205.49375
164,2014-06-30,0.90125,,0.90125
164,2014-07-01,193.98958333333334,,193.98958333333334
164,2014-07-02,170.42458333333335,,170.42458333333335
164,2014-07-03,101.39875,,101.39875
164,2014-07-04,165.98958333333334,,165.98958333333334
164,2014-07-05,238.53916666666666,,238.53916666666666
164,2014-07-06,238.96875,,238.96875
164,2014-07-07,80.72666666666667,,80.72666666666667
164,2014-07-08,165.32833333333335,,165.32833333333335
164,2014-07-09,139.46333333333334,,139.46333333333334
164,2014-07-10,205.24208333333334,,205.24208333333334
164,2014-07-11,231.90125,,231.90125
164,2014-07-12,190.91666666666666,,190.91666666666666
164,2014-07-13,67.55458333333333,,67.55458333333333
164,2014-07-14,131.73958333333334,,131.73958333333334
164,2014-07-15,124.23416666666667,,124.23416666666667
164,2014-07-16,167.00291666666666,,167.00291666666666
164,2014-07-17,154.83333333333334,,154.83333333333334
164,2014-07-18,204.92166666666665,,204.92166666666665
164,2014-07-19,129.03375,,129.03375
164,2014-07-20,159.11958333333334,,159.11958333333334
164,2014-07-21,183.27874999999997,,183.27874999999997
164,2014-07-22,201.51291666666668,,201.51291666666668
164,2014-07-23,122.3125,,122.3125
164,2014-07-24,214.13291666666666,,214.13291666666666
164,2014-07-25,211.29166666666666,,211.29166666666666
164,2014-07-26,192.08583333333334,,192.08583333333334
164,2014-07-27,182.77083333333334,,182.77083333333334
164,2014-07-28,21.630416666666665,,21.630416666666665
164,2014-07-29,131.32291666666666,,131.32291666666666
164,2014-07-30,164.22916666666666,,164.22916666666666
164,2014-07-31,183.00250000000003,,183.00250000000003
164,2014-08-01,183.06500000000003,,183.06500000000003
164,2014-08-02,206.04416666666668,,206.04416666666668
164,2014-08-03,98.5675,,98.5675
164,2014-08-04,193.27333333333334,,193.27333333333334
164,2014-08-05,119.09375,,119.09375
164,2014-08-06,181.88541666666666,,181.88541666666666
164,2014-08-07,193.57041666666666,,193.57041666666666
164,2014-08-08,188.72916666666666,,188.72916666666666
164,2014-08-09,221.85166666666666,,221.85166666666666
164,2014-08-10,215.875,,215.875
164,2014-08-11,183.005,,183.005
164,2014-08-12,56.76291666666666,,56.76291666666666
164,2014-08-13,137.95583333333335,,137.95583333333335
164,2014-08-14,175.02083333333334,,175.02083333333334
164,2014-08-15,127.21875,,127.21875
164,2014-08-16,128.44541666666666,,128.44541666666666
164,2014-08-17,168.21083333333334,,168.21083333333334
164,2014-08-18,164.89583333333334,,164.89583333333334
164,2014-08-19,141.83879166666665,,141.83879166666665
164,2014-08-20,61.04458333333333,,61.04458333333333
164,2014-08-21,154.70083333333335,,154.70083333333335
164,2014-08-22,143.4425,,143.4425
164,2014-08-23,91.62495833333332,,91.62495833333332
164,2014-08-24,213.47629166666664,,213.47629166666664
164,2014-08-25,204.17708333333334,,204.17708333333334
164,2014-08-26,217.27333333333334,,217.27333333333334
164,2014-08-27,107.38291666666667,,107.38291666666667
164,2014-08-28,146.53125,,146.53125
164,2014-08-29,210.38541666666666,,210.38541666666666
164,2014-08-30,207.62,,207.62
164,2014-08-31,70.35916666666667,,70.35916666666667
164,2014-09-01,193.23666666666668,,193.23666666666668
164,2014-09-02,114.15333333333332,,114.15333333333332
164,2014-09-03,208.07833333333335,,208.07833333333335
164,2014-09-04,174.03125,,174.03125
164,2014-09-05,194.88,,194.88
164,2014-09-06,36.747458333333334,,36.747458333333334
164,2014-09-07,195.26041666666666,,195.26041666666666
164,2014-09-08,214.95583333333332,,214.95583333333332
164,2014-09-09,152.255,,152.255
164,2014-09-10,117.60416666666667,,117.60416666666667
164,2014-09-11,82.44791666666667,,82.44791666666667
164,2014-09-12,89.67958333333333,,89.67958333333333
164,2014-09-13,73.96083333333333,,73.96083333333333
164,2014-09-14,175.17208333333335,,175.17208333333335
164,2014-09-15,183.87,,183.87
164,2014-09-16,137.8125,,137.8125
164,2014-09-17,179.84625000000003,,179.84625000000003
164,2014-09-18,97.23166666666667,,97.23166666666667
164,2014-09-19,218.33083333333332,,218.33083333333332
164,2014-09-20,135.375,,135.375
164,2014-09-21,80.52083333333333,,80.52083333333333
164,2014-09-22,73.65375,,73.65375
164,2014-09-23,209.23666666666668,,209.23666666666668
164,2014-09-24,195.77333333333334,,195.77333333333334
164,2014-09-25,170.47125,,170.47125
164,2014-09-26,192.19541666666666,,192.19541666666666
164,2014-09-27,200.89833333333334,,200.89833333333334
164,2014-09-28,186.59124999999997,,186.59124999999997
164,2014-09-29,169.34875,,169.34875
164,2014-09-30,121.54166666666667,,121.54166666666667
164,2014-10-01,75.06541666666666,,75.06541666666666
164,2014-10-02,111.53916666666667,,111.53916666666667
164,2014-10-03,138.64083333333335,,138.64083333333335
164,2014-10-04,71.99249999999999,,71.99249999999999
164,2014-10-05,97.64583333333333,,97.64583333333333
164,2014-10-06,139.52625,,139.52625
164,2014-10-07,143.98208333333335,,143.98208333333335
164,2014-10-08,92.21875,,92.21875
164,2014-10-09,164.88,,164.88
164,2014-10-10,138.17458333333335,,138.17458333333335
164,2014-10-11,93.56791666666668,,93.56791666666668
164,2014-10-12,197.98458333333335,,197.98458333333335
164,2014-10-13,85.60166666666667,,85.60166666666667
164,2014-10-14,127.35125,,127.35125
164,2014-10-15,33.638333333333335,,33.638333333333335
164,2014-10-16,141.14041666666665,,141.14041666666665
164,2014-10-17,105.96875,,105.96875
164,2014-10-18,33.06,,33.06
164,2014-10-19,60.88791666666666,,60.88791666666666
164,2014-10-20,54.213166666666666,,54.213166666666666
164,2014-10-21,38.00791666666667,,38.00791666666667
164,2014-10-22,24.27625,,24.27625
164,2014-10-23,48.072916666666664,,48.072916666666664
164,2014-10-24,155.04958333333335,,155.04958333333335
164,2014-10-25,103.70333333333333,,103.70333333333333
164,2014-10-26,22.39833333333333,,22.39833333333333
164,2014-10-27,153.45583333333335,,153.45583333333335
164,2014-10-28,87.78125,,87.78125
164,2014-10-29,25.140416666666667,,25.140416666666667
164,2014-10-30,57.1175,,57.1175
164,2014-10-31,67.56,,67.56
164,2014-11-01,17.895833333333332,,17.895833333333332
164,2014-11-02,113.65375,,113.65375
164,2014-11-03,123.21083333333333,,123.21083333333333
164,2014-11-04,67.95583333333333,,67.95583333333333
164,2014-11-05,126.11208333333333,,126.11208333333333
164,2014-11-06,10.018333333333333,,10.018333333333333
164,2014-11-07,33.28375,,33.28375
164,2014-11-08,47.07541666666666,,47.07541666666666
164,2014-11-09,36.33583333333333,,36.33583333333333
164,2014-11-10,94.60416666666667,,94.60416666666667
164,2014-11-11,152.07295833333333,,152.07295833333333
164,2014-11-12,107.3725,,107.3725
164,2014-11-13,15.304583333333333,,15.304583333333333
164,2014-11-14,48.20291666666666,,48.20291666666666
164,2014-11-15,117.78125,,117.78125
164,2014-11-16,26.700333333333333,,26.700333333333333
164,2014-11-17,3.297083333333333,,3.297083333333333
164,2014-11-18,49.97416666666667,,49.97416666666667
164,2014-11-19,120.10125,,120.10125
164,2014-11-20,20.5,,20.5
164,2014-11-21,80.96375,,80.96375
164,2014-11-22,36.99208333333333,,36.99208333333333
164,2014-11-23,15.450416666666667,,15.450416666666667
164,2014-11-24,83.28875000000001,,83.28875000000001
164,2014-11-25,119.19541666666667,,119.19541666666667
164,2014-11-26,4.104166666666667,,4.104166666666667
164,2014-11-27,0.5416666666666666,,0.5416666666666666
164,2014-11-28,2.97125,,2.97125
164,2014-11-29,3.4324999999999997,,3.4324999999999997
164,2014-11-30,36.5,,36.5
164,2014-12-01,25.958333333333332,,25.958333333333332
164,2014-12-02,60.78125,,60.78125
164,2014-12-03,8.664166666666667,,8.664166666666667
164,2014-12-04,95.89291666666666,,95.89291666666666
164,2014-12-05,19.921666666666667,,19.921666666666667
164,2014-12-06,9.46375,,9.46375
164,2014-12-07,119.86708333333333,,119.86708333333333
164,2014-12-08,45.979166666666664,,45.979166666666664
164,2014-12-09,43.91916666666666,,43.91916666666666
164,2014-12-10,2.7733333333333334,,2.7733333333333334
164,2014-12-11,4.8620833333333335,,4.8620833333333335
164,2014-12-12,8.296666666666667,,8.296666666666667
164,2014-12-13,6.729166666666667,,6.729166666666667
164,2014-12-14,22.322916666666668,,22.322916666666668
164,2014-12-15,15.958333333333334,,15.958333333333334
164,2014-12-16,13.580833333333333,,13.580833333333333
164,2014-12-17,14.583333333333334,,14.583333333333334
164,2014-12-18,6.13,,6.13
164,2014-12-19,10.393333333333333,,10.393333333333333
164,2014-12-20,25.330833333333334,,25.330833333333334
164,2014-12-21,44.91375,,44.91375
164,2014-12-22,88.84125,,88.84125
164,2014-12-23,16.289166666666667,,16.289166666666667
164,2014-12-24,7.5075,,7.5075
164,2014-12-25,19.955833333333334,,19.955833333333334
164,2014-12-26,94.12,,94.12
164,2014-12-27,68.54166666666667,,68.54166666666667
164,2014-12-28,10.427083333333334,,10.427083333333334
164,2014-12-29,26.32041666666667,,26.32041666666667
164,2014-12-30,6.90625,,6.90625
164,2014-12-31,72.64333333333333,,72.64333333333333
164,2015-01-01,69.8125,,69.8125
164,2015-01-02,26.5625,,26.5625
164,2015-01-03,10.1225,,10.1225
164,2015-01-04,23.505,,23.505
164,2015-01-05,62.802083333333336,,62.802083333333336
164,2015-01-06,6.1379166666666665,,6.1379166666666665
164,2015-01-07,84.04708333333333,,84.04708333333333
164,2015-01-08,94.97916666666667,,94.97916666666667
164,2015-01-09,61.83583333333333,,61.83583333333333
164,2015-01-10,98.49208333333333,,98.49208333333333
164,2015-01-11,26.497500000000002,,26.497500000000002
164,2015-01-12,3.96875,,3.96875
164,2015-01-13,20.414166666666667,,20.414166666666667
164,2015-01-14,42.75791666666667,,42.75791666666667
164,2015-01-15,106.72916666666667,,106.72916666666667
164,2015-01-16,39.88291666666667,,39.88291666666667
164,2015-01-17,95.15125,,95.15125
164,2015-01-18,42.903333333333336,,42.903333333333336
164,2015-01-19,18.34375,,18.34375
164,2015-01-20,87.14041666666667,,87.14041666666667
164,2015-01-21,71.10958333333333,,71.10958333333333
164,2015-01-22,81.02070833333333,,81.02070833333333
164,2015-01-23,98.30208333333333,,98.30208333333333
164,2015-01-24,0.0,,0.0
164,2015-01-25,0.0,,0.0
164,2015-01-26,6.974166666666666,,6.974166666666666
164,2015-01-27,0.8591666666666667,,0.8591666666666667
164,2015-01-28,3.2862500000000003,,3.2862500000000003
164,2015-01-29,0.15125,,0.15125
164,2015-01-30,1.2708333333333333,,1.2708333333333333
164,2015-01-31,3.452916666666667,,3.452916666666667
164,2015-02-01,1.0470833333333334,,1.0470833333333334
164,2015-02-02,0.0,,0.0
164,2015-02-03,0.0,,0.0
164,2015-02-04,0.0,,0.0
164,2015-02-05,5.14075,,5.14075
164,2015-02-06,13.552041666666668,,13.552041666666668
164,2015-02-07,3.2867083333333333,,3.2867083333333333
164,2015-02-08,1.71875,,1.71875
164,2015-02-09,0.0,,0.0
164,2015-02-10,0.0,,0.0
164,2015-02-11,0.9429166666666666,,0.9429166666666666
164,2015-02-12,2.9895833333333335,,2.9895833333333335
164,2015-02-13,8.161666666666667,,8.161666666666667
164,2015-02-14,2.796625,,2.796625
164,2015-02-15,6.416625,,6.416625
164,2015-02-16,4.156291666666667,,4.156291666666667
164,2015-02-17,11.364583333333334,,11.364583333333334
164,2015-02-18,14.822916666666666,,14.822916666666666
164,2015-02-19,24.494666666666664,,24.494666666666664
164,2015-02-20,36.04666666666667,,36.04666666666667
164,2015-02-21,5.447916666666667,,5.447916666666667
164,2015-02-22,16.71875,,16.71875
164,2015-02-23,0.0,,0.0
164,2015-02-24,49.59370833333333,,49.59370833333333
164,2015-02-25,69.95333333333333,,69.95333333333333
164,2015-02-26,45.765458333333335,,45.765458333333335
164,2015-02-27,76.70295833333334,,76.70295833333334
164,2015-02-28,95.65133333333334,,95.65133333333334
164,2015-03-01,3.8437083333333333,,3.8437083333333333
164,2015-03-02,52.197875,,52.197875
164,2015-03-03,23.952916666666667,,23.952916666666667
164,2015-03-04,32.75,,32.75
164,2015-03-05,21.297124999999998,,21.297124999999998
164,2015-03-06,118.57291666666667,,118.57291666666667
164,2015-03-07,56.145833333333336,,56.145833333333336
164,2015-03-08,78.942875,,78.942875
164,2015-03-09,137.03125,,137.03125
164,2015-03-10,67.65125,,67.65125
164,2015-03-11,200.656125,,200.656125
164,2015-03-12,220.54658333333336,,220.54658333333336
164,2015-03-13,190.58870833333333,,190.58870833333333
164,2015-03-14,43.33879166666667,,43.33879166666667
164,2015-03-15,20.708375,,20.708375
164,2015-03-16,140.94787499999998,,140.94787499999998
164,2015-03-17,103.00495833333333,,103.00495833333333
164,2015-03-18,144.70829166666667,,144.70829166666667
164,2015-03-19,225.82287499999998,,225.82287499999998
164,2015-03-20,40.229,,40.229
164,2015-03-21,31.10925,,31.10925
164,2015-03-22,59.56254166666667,,59.56254166666667
164,2015-03-23,157.77633333333333,,157.77633333333333
164,2015-03-24,203.41125,,203.41125
164,2015-03-25,104.92204166666666,,104.92204166666666
164,2015-03-26,27.609125000000002,,27.609125000000002
164,2015-03-27,94.76041666666667,,94.76041666666667
164,2015-03-28,152.55745833333333,,152.55745833333333
164,2015-03-29,232.83879166666668,,232.83879166666668
164,2015-03-30,47.81745833333333,,47.81745833333333
164,2015-03-31,86.036375,,86.036375
164,2015-04-01,232.79716666666664,,232.79716666666664
164,2015-04-02,88.96379166666667,,88.96379166666667
164,2015-04-03,0.0,,0.0
164,2015-04-04,0.0,,0.0
164,2015-04-05,0.0,,0.0
164,2015-04-06,0.0,,0.0
164,2015-04-07,63.32279166666667,,63.32279166666667
164,2015-04-08,26.468666666666667,,26.468666666666667
164,2015-04-09,88.56245833333332,,88.56245833333332
164,2015-04-10,59.26029166666667,,59.26029166666667
164,2015-04-11,68.07795833333334,,68.07795833333334
164,2015-04-12,232.30212500000002,,232.30212500000002
164,2015-04-13,197.27583333333334,,197.27583333333334
164,2015-04-14,171.75004166666668,,171.75004166666668
164,2015-04-15,236.95329166666667,,236.95329166666667
164,2015-04-16,200.58875,,200.58875
164,2015-04-17,78.59870833333333,,78.59870833333333
164,2015-04-18,233.552,,233.552
164,2015-04-19,225.06245833333332,,225.06245833333332
164,2015-04-20,115.03675,,115.03675
164,2015-04-21,119.682125,,119.682125
164,2015-04-22,74.68258333333334,,74.68258333333334
164,2015-04-23,87.66666666666667,,87.66666666666667
164,2015-04-24,73.07829166666666,,73.07829166666666
164,2015-04-25,231.30208333333334,,231.30208333333334
164,2015-04-26,161.3125,,161.3125
164,2015-04-27,80.48454166666666,,80.48454166666666
164,2015-04-28,225.03116666666665,,225.03116666666665
164,2015-04-29,207.9115833333333,,207.9115833333333
164,2015-04-30,224.92208333333335,,224.92208333333335
164,2015-05-01,206.85420833333333,,206.85420833333333